[[{"header":{"parameterUnit":"m.s-1","parameterCategory":1,"la1":30.2991,"la2":30.254,"lo1":-89.0895,"lo2":-89.0444,"dy":0.0017,"dx":0.0017,"nx":28,"ny":28,"refTime":"2023-10-25T21:00:00:Z","depth":0,"parameterNumber":2,"parameterNumberName":"U-component_of_WINDS"},"data":[0,0,0,0,0,0,0,0,0,0,0,0,0,0,0,0,0,0,0,0,0,0,0,0,0,0,0,0,0,0,0,0,0,0,0,0,0,0,0,0,0,0,0,0,0,0,0,0,0,0,0,0,0,0,0,0,0,0,-3.8416,-3.8416,0,-3.8448,-3.8448,-3.8448,-3.8309,-3.8304,-3.83,-3.8296,-3.8333,-3.8338,-3.8343,0,0,0,0,0,0,0,0,0,0,0,0,0,-3.824,-3.8244,-3.8416,-3.8416,-3.8417,-3.8447,-3.8448,-3.8448,-3.8309,-3.8304,-3.8299,-3.8295,-3.8332,-3.8338,-3.8343,0,0,0,0,0,0,0,0,0,0,0,0,0,-3.8299,-3.8245,-3.8416,-3.8351,-3.8345,-3.8447,-3.8448,-3.8448,-3.831,-3.8304,-3.8298,-3.8292,-3.833,-3.8337,-3.8344,-3.8512,0,0,-3.8366,-3.8369,0,0,0,0,0,0,0,0,-3.8296,-3.8305,-3.836,-3.8356,-3.835,-3.8368,-3.8399,-3.847,-3.8312,-3.8324,-3.8296,-3.8289,-3.835,-3.8355,-3.8375,-3.8513,-3.8515,-3.8367,-3.8371,-3.8374,-3.8376,0,0,0,0,0,0,0,-3.8292,-3.8303,-3.8428,-3.8361,-3.8355,-3.8322,-3.8323,-3.8412,-3.8371,-3.8322,-3.8312,-3.8318,-3.8346,-3.8368,-3.8375,-3.8515,-3.8367,-3.8373,-3.8377,-3.838,-3.8794,-3.88,0,0,0,0,0,0,-3.8296,-3.8301,-3.8427,-3.8429,-3.8307,-3.833,-3.8332,-3.8368,-3.837,-3.8364,-3.8323,-3.8311,-3.8359,-3.8366,-3.8375,-3.8571,-3.8374,-3.8381,-3.8385,-3.8787,-3.8795,-3.8802,0,0,0,0,0,0,-3.8292,-3.8308,-3.8426,-3.8362,-3.8375,-3.8339,-3.8382,-3.8372,-3.8394,-3.837,-3.8363,-3.8353,-3.8354,-3.8365,-3.8478,-3.8571,-3.8384,-3.8391,-3.8779,-3.8789,-3.8799,-3.8965,0,0,0,0,0,0,-3.8288,-3.8308,-3.837,-3.8365,-3.8379,-3.8528,-3.8387,-3.8377,-3.8406,-3.8391,-3.8396,-3.8391,-3.835,-3.8469,-3.8486,-3.8577,-3.8396,-3.8771,-3.8784,-3.8795,-3.8951,-3.8979,-3.9004,0,0,0,0,0,-3.8282,-3.8416,-3.8374,-3.839,-3.8455,-3.8533,-3.8541,-3.849,-3.8414,-3.8477,-3.8462,-3.8391,-3.8558,-3.8481,-3.8499,-3.8595,-3.8765,-3.878,-3.8795,-3.8939,-3.8974,-3.9003,0,0,0,0,0,0,-3.8434,-3.8414,-3.8367,-3.8503,-3.8521,-3.8509,-3.8587,-3.8529,-3.857,-3.8554,-3.8491,-3.8493,-3.8618,-3.8617,-3.8532,-3.8757,-3.8648,-3.8668,-3.8752,-3.8785,-3.8811,-3.8808,-3.8402,0,0,0,0,0,-3.8484,-3.8547,-3.8527,-3.8649,-3.866,-3.8623,-3.8655,-3.8614,-3.863,-3.8638,-3.8631,-3.8651,-3.8707,-3.8746,-3.8797,-3.8951,-3.895,-3.9026,-3.9052,-3.9074,-3.9091,-3.9173,-3.9206,-3.8851,-3.8851,-3.8851,0,0,-3.8586,-3.8583,-3.8627,-3.868,-3.8688,-3.8757,-3.863,-3.8708,-3.8758,-3.865,-3.8755,-3.8752,-3.877,-3.8904,-3.8963,-3.8908,-3.9189,-3.9093,-3.911,-3.9116,-3.9192,-3.9225,-3.9255,-3.8862,-3.886,-3.8858,0,0,-3.8808,-3.8812,-3.8914,-3.8926,-3.894,-3.8915,-3.894,-3.8938,-3.893,-3.9035,-3.8956,-3.9016,-3.9116,-3.9132,-3.9153,-3.9383,-3.932,-3.9402,-3.9539,-3.962,-3.9647,-3.9672,-3.9754,-3.9784,-3.9419,-3.942,-3.942,0,-3.8934,-3.9032,-3.8975,-3.9058,-3.9084,-3.8988,-3.9092,-3.9106,-3.9138,-3.9159,-3.9097,-3.922,-3.9225,-3.9362,-3.9418,-3.9439,-3.9466,-3.94,-3.9648,-3.9672,-3.9694,-3.9771,-3.9802,-3.943,-3.9429,-3.9428,-3.9427,0,-3.9186,-3.9256,-3.9337,-3.9369,-3.9404,-3.9498,-3.9456,-3.9499,-3.9456,-3.9438,-3.9547,-3.955,-3.9601,-3.963,-3.959,-3.9762,-3.9728,-3.9658,-3.9547,-3.9738,-3.981,-3.9839,-3.9444,-3.944,-3.9437,-3.9435,0,0,-3.9503,-3.9502,-3.9533,-3.9546,-3.9556,-3.961,-3.97,-3.9748,-3.9786,-3.9812,-3.9887,-3.9974,-3.9909,-3.9934,-3.9895,-3.9966,-4.0148,-3.9887,-3.9886,-3.9935,-4.0339,-4.0391,-4.0426,-4.0106,-4.0112,-4.0116,-4.0337,0,-3.9719,-3.9871,-3.9823,-3.9977,-4.0041,-3.9952,-4.0031,-4.0047,-4.0033,-4.0087,-4.0071,-4.0134,-4.0044,-4.0058,-4.0125,-4.0112,-4.0228,-4.0095,-4.0176,-4.018,-4.0173,-4.0463,-4.0518,-4.0726,-4.0365,-4.037,-4.0373,0,-3.9992,-4.0027,-4.0187,-4.0187,-4.0212,-4.0284,-4.0324,-4.0377,-4.0394,-4.0379,-4.0407,-4.0353,-4.0443,-4.0334,-4.0458,-4.0368,-4.0399,-4.0398,-4.0405,-4.041,-4.0287,-4.0475,-4.0791,-4.0822,-4.0417,-4.0413,-4.041,0,-4.0206,-4.0294,-4.0401,-4.0415,-4.0418,-4.0471,-4.0475,-4.0485,-4.0518,-4.0554,-4.0575,-4.0622,-4.0648,-4.0687,-4.0648,-4.0572,-4.0779,-4.0665,-4.0769,-4.0771,-4.0816,-4.0813,-4.114,-4.0838,-4.0837,-4.0837,-4.0836,0,-4.0452,-4.0553,-4.0497,-4.0563,-4.0675,-4.062,-4.0732,-4.0726,-4.0737,-4.0802,-4.0729,-4.0792,-4.0737,-4.0796,-4.0766,-4.0874,-4.0886,-4.0877,-4.0868,-4.0883,-4.0884,-4.0901,-4.0886,-4.0845,-4.0843,-4.0841,-4.084,0,-4.0709,-4.0675,-4.0786,-4.078,-4.0781,-4.0864,-4.0859,-4.0921,-4.0902,-4.0985,-4.1001,-4.0973,-4.1037,-4.1003,-4.1071,-4.1051,-4.119,-4.1162,-4.1184,-4.1176,-4.1282,-4.1272,-4.163,-4.1674,-4.1345,-4.1348,-4.1351,0,-4.0867,-4.0943,-4.0945,-4.0982,-4.0991,-4.1052,-4.1084,-4.1035,-4.1072,-4.1098,-4.1157,-4.1215,-4.1259,-4.1368,-4.1354,-4.1406,-4.1378,-4.15,-4.1385,-4.1398,-4.1379,-4.1374,-4.1382,-4.1522,-4.1526,-4.1529,-4.1532,0,-4.1152,-4.1132,-4.118,-4.1225,-4.1265,-4.1298,-4.1324,-4.136,-4.131,-4.1356,-4.1421,-4.1455,-4.1524,-4.1583,-4.1628,-4.1634,-4.1576,-4.1569,-4.1595,-4.1611,-4.162,-4.1616,-4.1246,-4.156,-4.1557,-4.1555,-4.1554,-4.1553,-4.1363,-4.1427,-4.1438,-4.1495,-4.151,-4.1537,-4.1595,-4.1584,-4.1636,-4.1687,-4.1655,-4.1732,-4.1749,-4.1803,-4.1817,-4.1877,-4.1829,-4.1868,-4.1877,-4.1887,-4.1901,-4.1612,-4.1886,-4.1885,-4.1884,-4.1883,-4.1883,0,-4.1643,-4.1647,-4.17,-4.1739,-4.1785,-4.1725,-4.1752,-4.1795,-4.1863,-4.1883,-4.1928,-4.2003,-4.2061,-4.2053,-4.2106,-4.2156,-4.2131,-4.2172,-4.2167,-4.2169,-4.1942,-4.1913,-4.2191,-4.2191,-4.2191,-4.2191,-4.2191,-4.2191,-4.1794,-4.1898,-4.188,-4.1992,-4.1995,-4.2068,-4.2089,-4.2114,-4.2129,-4.2217,-4.2264,-4.2258,-4.2267,-4.232,-4.2372,-4.2368,-4.239,-4.2441,-4.2428,-4.2216,-4.2185,-4.2156,-4.2128,-4.2447,-4.2447,-4.2649,-4.2651,-4.2653]},{"header":{"parameterUnit":"m.s-1","parameterCategory":1,"la1":30.2991,"la2":30.254,"lo1":-89.0895,"lo2":-89.0444,"dy":0.0017,"dx":0.0017,"nx":28,"ny":28,"refTime":"2023-10-25T21:00:00:Z","depth":0,"parameterNumber":3,"parameterNumberName":"V-component_of_WINDS"},"data":[0,0,0,0,0,0,0,0,0,0,0,0,0,0,0,0,0,0,0,0,0,0,0,0,0,0,0,0,0,0,0,0,0,0,0,0,0,0,0,0,0,0,0,0,0,0,0,0,0,0,0,0,0,0,0,0,0,0,0.1886,0.1886,0,0.1871,0.1871,0.1871,0.1781,0.1779,0.1777,0.1775,0.1764,0.1765,0.1767,0,0,0,0,0,0,0,0,0,0,0,0,0,0.1843,0.1844,0.1886,0.1886,0.1886,0.1871,0.1871,0.1871,0.1782,0.1779,0.1777,0.1774,0.1763,0.1765,0.1767,0,0,0,0,0,0,0,0,0,0,0,0,0,0.1848,0.1845,0.1886,0.1839,0.1835,0.1871,0.1871,0.187,0.1782,0.1779,0.1776,0.1773,0.1762,0.1765,0.1767,0.1848,0,0,0.1775,0.1776,0,0,0,0,0,0,0,0,0.1848,0.185,0.1847,0.1843,0.1838,0.1825,0.1851,0.1863,0.1783,0.1803,0.1775,0.1771,0.1787,0.1787,0.1791,0.1847,0.1847,0.1775,0.1777,0.1778,0.1779,0,0,0,0,0,0,0,0.1848,0.185,0.188,0.1847,0.1841,0.1821,0.1818,0.1853,0.1813,0.1801,0.1794,0.1793,0.1784,0.1789,0.1791,0.1847,0.1775,0.1778,0.1779,0.178,0.1971,0.1975,0,0,0,0,0,0,0.1853,0.185,0.1881,0.188,0.1835,0.1824,0.1821,0.1832,0.1812,0.1806,0.1796,0.1789,0.1786,0.1788,0.179,0.1885,0.1778,0.178,0.1782,0.1968,0.1972,0.1976,0,0,0,0,0,0,0.1853,0.1857,0.1881,0.1863,0.1865,0.1828,0.1842,0.1834,0.1839,0.1809,0.1802,0.1809,0.1784,0.1786,0.1835,0.1884,0.1782,0.1784,0.1964,0.1969,0.1974,0.2076,0,0,0,0,0,0,0.1852,0.1857,0.1886,0.1864,0.1866,0.1925,0.1845,0.1836,0.1843,0.1834,0.1819,0.1813,0.1782,0.1831,0.1837,0.1885,0.1786,0.1959,0.1966,0.1972,0.2068,0.2084,0.2098,0,0,0,0,0,0.1851,0.1916,0.1888,0.1892,0.1901,0.1928,0.1929,0.189,0.1847,0.1877,0.1858,0.1814,0.1877,0.1837,0.1843,0.1893,0.1956,0.1964,0.1972,0.2062,0.2081,0.2098,0,0,0,0,0,0,0.1945,0.1912,0.1881,0.1941,0.1938,0.1913,0.1949,0.1912,0.1922,0.1913,0.1865,0.1862,0.1919,0.191,0.1866,0.1971,0.1909,0.1919,0.1975,0.1993,0.2008,0.201,0.1788,0,0,0,0,0,0.1973,0.1996,0.1966,0.2022,0.2022,0.1986,0.1996,0.1966,0.1962,0.1961,0.1945,0.1944,0.1963,0.1977,0.1994,0.2066,0.2063,0.2103,0.2118,0.213,0.214,0.2181,0.2199,0.2002,0.2002,0.2002,0,0,0.203,0.2015,0.2033,0.204,0.2034,0.2062,0.1986,0.2017,0.2037,0.1966,0.2011,0.2,0.1995,0.2057,0.2083,0.2051,0.2194,0.214,0.2151,0.2154,0.2191,0.221,0.2226,0.2008,0.2007,0.2006,0,0,0.215,0.2139,0.2186,0.2182,0.2174,0.215,0.2161,0.2142,0.2132,0.2176,0.2124,0.2148,0.2182,0.2182,0.2186,0.2307,0.2268,0.2314,0.2393,0.2433,0.2449,0.2462,0.2509,0.2526,0.2323,0.2323,0.2324,0,0.2223,0.226,0.2215,0.225,0.2256,0.2192,0.224,0.2239,0.2237,0.2244,0.2208,0.2251,0.2243,0.2305,0.2335,0.2339,0.2353,0.2317,0.245,0.2463,0.2475,0.2519,0.2536,0.2329,0.2329,0.2328,0.2327,0,0.2352,0.2379,0.2418,0.2418,0.2428,0.2469,0.2432,0.2448,0.2418,0.2399,0.2446,0.2435,0.2449,0.2461,0.2431,0.252,0.2501,0.2458,0.2395,0.25,0.2541,0.2557,0.2338,0.2336,0.2334,0.2332,0,0,0.2532,0.2506,0.2522,0.2522,0.2509,0.253,0.2569,0.2582,0.2598,0.2599,0.2634,0.2665,0.2625,0.2631,0.2601,0.2636,0.2737,0.2589,0.2588,0.2619,0.2837,0.2872,0.2892,0.2709,0.2712,0.2714,0.2839,0,0.2649,0.2714,0.2675,0.2747,0.2773,0.2713,0.2748,0.2745,0.2728,0.2749,0.2731,0.2755,0.2699,0.2703,0.2734,0.2718,0.278,0.2707,0.2744,0.2745,0.275,0.2912,0.2948,0.3066,0.2854,0.2856,0.2858,0,0.2794,0.2801,0.2876,0.286,0.287,0.2902,0.2912,0.2931,0.2928,0.2913,0.292,0.2882,0.2922,0.2858,0.2915,0.2866,0.2879,0.2873,0.2876,0.2881,0.281,0.2924,0.3103,0.3122,0.2882,0.288,0.2879,0,0.2922,0.295,0.2999,0.3001,0.2983,0.3007,0.3001,0.2994,0.3005,0.3014,0.3021,0.3035,0.3044,0.3056,0.3024,0.298,0.3087,0.3019,0.3078,0.308,0.3106,0.3105,0.3292,0.3109,0.3108,0.3108,0.3108,0,0.3058,0.3107,0.3057,0.3087,0.3141,0.3097,0.3152,0.3139,0.3134,0.3163,0.3111,0.3139,0.3093,0.3118,0.3093,0.3146,0.3149,0.3141,0.3134,0.3147,0.3149,0.3157,0.3149,0.3113,0.3112,0.3111,0.311,0,0.321,0.3178,0.3228,0.3207,0.3203,0.3244,0.3227,0.3256,0.3235,0.3273,0.3279,0.3248,0.3274,0.3243,0.3266,0.325,0.3322,0.3302,0.3324,0.3319,0.3382,0.3378,0.3583,0.3609,0.3406,0.3408,0.3409,0,0.3301,0.3337,0.332,0.3336,0.3332,0.3357,0.3368,0.3326,0.334,0.334,0.337,0.3392,0.3407,0.3453,0.3434,0.3452,0.3434,0.3504,0.3437,0.345,0.3439,0.3439,0.3444,0.352,0.3522,0.3524,0.3525,0,0.3467,0.3449,0.3466,0.3479,0.3494,0.3502,0.3507,0.3522,0.3479,0.3498,0.3524,0.3536,0.356,0.3584,0.3598,0.3593,0.3554,0.3547,0.3562,0.3578,0.359,0.3588,0.3365,0.3543,0.3541,0.354,0.3539,0.3538,0.3593,0.3624,0.3617,0.3639,0.3638,0.3644,0.3671,0.3654,0.3674,0.3691,0.3664,0.3698,0.3696,0.371,0.371,0.3738,0.3708,0.3729,0.3735,0.3742,0.3753,0.3583,0.3739,0.3739,0.3738,0.3738,0.3738,0,0.3759,0.3752,0.3772,0.378,0.3798,0.3757,0.376,0.3779,0.3809,0.381,0.3826,0.3858,0.3881,0.3864,0.3884,0.3909,0.3892,0.3916,0.3916,0.3916,0.3777,0.3763,0.393,0.393,0.393,0.393,0.393,0.393,0.3847,0.3898,0.3881,0.3931,0.3924,0.3956,0.3962,0.3968,0.3968,0.4006,0.4025,0.4013,0.4007,0.4026,0.4047,0.4041,0.4053,0.4085,0.4073,0.3944,0.3925,0.3908,0.3895,0.4086,0.4087,0.421,0.4211,0.4212]}]]